Find Syracuse 4A

NORAD ID: 49333 Int'l Des: 2021-095 Owner: DGA Country: F operational
HEOCIRCULARGSOGEO

現在のビュー

3D地球を読み込み中...

Syracuse 4Aについて

説明を読み込み中...

次回通過

Passes for default location (London). Set your location on the main map for personalized predictions.

高度履歴

Loading altitude history...

軌道要素

1 49333U 21095B 26150.15564418 .00000147 00000-0 00000+0 0 9998
2 49333 0.0167 324.2216 0001377 96.9128 288.0789 1.00270500 17769
Epoch: May 30, 2026 • Age: 9 hours

現在のステータス

高度 35783.6 km
速度 3.07 km/s
衛星直下点 0.01°N, 45.51°E
打ち上げ日 Oct 24, 2021
運用期間 4.5 years
タイプ other

技術仕様

分類 Payload
質量 3852.00 kg
乾燥質量 3200.00 kg
総質量 3852.00 kg
長さ 5.00 m
直径 2.50 m
スパン 30.00 m
形状 Box + 2 Pan
製造者 THALES
バスタイプ Spacebus NEO100
フェーズステータス In Orbit
所有者/国 DGA/F

Most Searched